Location: Valley of Enchantment
(34.2467°N, 117.3048°W)
Time: 05:07:31
(UTC+00:00)

CZ-2C R/B - Pass Details

Date: 10 September 2024
Orbit: 664 x 778 km, 98.4° (Epoch: 09 October)

Event Time Altitude Azimuth Distance (km) Brightness Sun altitude
Rises 12:42:26 0° 350° (N) 3,148 5.7 -10.4°
Reaches altitude 10° 12:45:48 10° 326° (NW) 2,196 4.7 -9.7°
Maximum altitude 12:48:11 14° 296° (WNW) 1,921 4.1 -9.2°
Enters shadow 12:50:19 11° 268° (W) 2,111 4.1 -8.8°
